Temperature
15 15 15 15 15 15 15 15 15 15 15 15 15 15 15 15 15 15 15 15 15 15 15 15 15 15 15 15 15 15 15 15 15 15 15 15 15 15 15 15 15 15 15
15 15 15 15 15 15 15 15 15 15 15 15 15 15 15 15 15 15 14 14 14 14 14 14 14 14 14 14 14 14 14 14 14 14 14 14 15 15 15 15 15 15 15
15 15 15 15 15 15 15 15 15 15 15 15 15 15 15 14 14 14 14 14 14 14 14 14 14 14 14 14 14 14 14 14 14 14 14 14 14 15 14 14 14 15 15
15 15 15 14 14 14 14 15 15 15 15 14 14 14 14 14 14 14 14 14 14 14 14 14 14 14 14 14 14 14 14 14 14 14 14 14 14 14 14 14 14 14 14
14 14 14 14 14 14 14 14 14 14 14 14 14 14 14 14 14 14 14 14 14 14 14 14 14 14 14 14 13 13 14 14 14 14 14 14 14 14 14 14 14 14 14
14 14 14 14 14 14 14 14 14 14 14 14 14 14 14 14 14 14 14 13 13 13 13 14 14 13 13 13 13 13 13 13 13 13 13 13 13 14 14 14 14 14 14
14 14 14 14 14 14 14 14 14 14 14 14 14 14 13 13 13 13 13 13 13 13 13 13 13 13 13 13 13 13 13 13 13 13 13 13 13 13 13 14 13 14 14
14 14 14 14 14 14 14 14 14 14 13 13 13 13 13 13 13 13 13 13 13 13 13 13 13 13 13 13 13 13 13 13 13 13 13 13 13 13 13 13 13 13 13
13 13 13 13 13 13 13 13 13 13 13 13 13 13 13 12 12 12 12 12 12 12 12 12 12 12 12 12 12 12 12 12 12 12 13 13 13 13 13 13 13 13 13
13 13 13 13 13 13 13 13 13 13 12 12 12 12 12 12 12 12 12 12 12 12 12 12 12 12 12 12 12 12 12 12 12 12 12 12 12 12 13 12 12 13 13
13 13 13 13 13 13 12 12 12 12 12 12 12 12 12 12 12 11 11 11 12 11 11 11 11 11 11 11 11 11 11 12 12 12 12 12 12 12 12 12 12 12 12
13 12 12 12 12 12 12 12 12 12 12 11 11 11 11 11 11 11 11 11 11 11 11 11 11 11 11 11 11 11 11 11 11 11 12 12 12 12 12 12 12 12 12
12 12 12 12 12 12 12 11 11 11 11 11 11 11 11 11 11 11 11 10 10 10 10 10 11 11 11 11 10 10 11 11 11 11 11 11 11 11 12 12 12 12 12
12 12 11 11 11 11 11 11 11 11 11 11 10 10 10 10 10 10 10 10 10 10 10 10 10 10 10 10 10 10 10 10 11 11 11 11 11 11 11 11 11 11 11
11 11 11 11 11 11 11 11 11 10 10 10 10 10 10 10 10 10 10 10 9 9 9 9 9 10 10 10 10 10 10 10 10 10 11 11 11 11 11 11 11 11 11
11 11 11 11 11 10 10 10 10 10 10 10 10 10 10 10 10 10 10 10 9 9 9 9 9 9 9 9 10 10 10 10 10 10 10 10 10 10 10 10 10 11 11
11 11 11 10 10 10 10 10 10 10 10 10 10 10 9 9 9 9 9 9 9 9 9 9 9 9 9 9 9 9 9 9 10 10 10 10 10 10 10 10 10 10 10
10 10 10 10 10 10 9 9 9 9 9 9 9 9 9 9 9 9 9 9 9 8 8 8 9 9 9 9 9 9 9 9 9 9 9 9 9 9 9 10 10 10 10
10 10 10 10 9 9 9 9 9 9 9 9 9 9 9 9 9 9 9 8 8 8 8 8 8 8 8 8 8 8 8 8 9 9 9 9 9 9 9 9 9 9 9
10 9 9 9 9 9 9 9 8 8 8 8 8 8 8 8 8 8 8 8 8 8 8 8 8 8 8 8 8 8 8 8 8 8 8 8 9 9 9 9 9 9 9
9 9 9 9 9 9 8 8 8 8 8 8 8 8 8 8 8 8 8 8 8 7 7 7 7 8 7 7 7 7 7 7 8 8 8 8 8 8 8 8 8 8 8
9 9 9 9 8 8 8 8 8 7 7 7 8 7 7 7 7 7 7 7 7 7 7 7 7 7 7 7 7 7 7 7 7 7 7 8 8 8 8 8 8 8 8
9 9 8 8 8 8 8 8 8 7 7 7 7 7 7 7 7 7 7 7 7 7 7 7 7 7 7 7 7 6 6 6 6 6 7 7 7 7 8 8 7 7 8
9 8 8 8 8 8 8 8 7 7 7 7 7 7 7 7 7 7 6 6 6 6 6 6 6 6 6 6 6 6 6 6 6 6 6 6 7 7 7 7 7 7 7
8 8 8 8 7 7 7 7 7 7 7 7 6 6 6 6 6 6 6 6 6 6 6 6 6 6 6 6 6 6 6 6 6 6 6 6 6 6 7 7 7 7 7
8 8 8 7 7 7 7 7 7 7 6 6 6 6 6 6 6 6 6 6 6 6 6 6 6 6 6 6 6 6 6 6 6 5 5 5 6 6 6 6 6 6 7
Wind_Speed
2 3 3 5 5 5 5 4 4 5 5 6 6 6 6 6 6 7 6 8 9 9 9 9 10 9 7 6 6 6 5 6 6 6 6 7 7 6 5 5 5 5 5
3 2 3 3 4 4 4 4 4 4 4 4 5 6 6 6 6 7 7 7 9 10 10 10 10 10 9 8 7 6 6 6 6 6 6 7 7 6 6 5 4 5 5
4 3 3 3 3 5 5 5 5 5 4 4 5 5 5 6 6 6 7 7 7 9 10 10 10 10 10 10 9 7 6 5 5 6 6 7 7 7 6 5 5 4 4
5 4 3 3 4 5 4 3 3 4 4 4 3 4 4 5 6 6 7 7 7 7 8 10 10 10 10 10 10 9 8 7 7 7 6 6 6 6 6 5 5 5 5
6 5 4 3 4 4 3 3 3 3 3 3 3 4 4 4 4 6 6 7 8 8 8 9 10 11 10 10 10 10 10 9 8 7 6 6 6 6 6 5 5 5 5
6 6 5 4 4 3 3 3 3 3 3 2 3 4 4 3 4 5 5 6 8 8 8 9 8 8 10 9 10 10 10 10 9 8 7 6 6 6 6 5 6 5 5
6 6 4 4 4 3 3 3 3 4 4 2 3 3 3 4 4 4 4 5 6 7 8 8 7 7 7 8 9 10 10 10 10 9 8 7 6 6 6 5 5 6 5
5 5 5 3 3 3 4 4 3 2 2 3 2 2 2 3 3 4 4 4 4 5 6 7 7 7 7 6 8 9 9 10 9 9 9 8 7 5 5 4 4 5 5
5 5 4 4 3 3 3 2 2 3 2 2 3 3 2 1 1 3 3 4 4 4 4 5 7 7 7 7 7 8 9 9 9 9 9 8 7 6 5 4 4 4 4
5 5 4 4 3 3 3 2 2 2 3 1 2 2 2 2 1 1 2 3 4 4 4 4 5 6 7 6 7 8 9 9 8 8 8 8 7 7 6 5 4 3 3
4 4 4 4 3 3 2 3 3 3 2 2 1 1 1 2 2 2 1 3 3 3 3 3 3 4 6 6 6 7 8 8 8 8 8 8 8 7 6 6 5 4 4
2 3 4 4 3 3 2 2 2 3 2 2 2 2 2 1 1 1 1 1 2 2 3 3 3 4 5 5 6 8 7 8 8 8 8 7 8 7 7 7 7 6 5
1 1 2 2 2 2 2 3 3 2 2 2 1 1 1 1 1 1 2 1 1 2 2 2 2 3 5 5 5 7 6 7 7 8 8 7 7 7 6 6 6 6 6
1 1 2 2 2 2 2 2 2 1 2 2 1 1 1 0 1 1 2 2 0 1 2 2 2 3 4 4 5 6 5 6 7 7 7 6 7 6 6 6 6 6 6
1 2 2 2 2 2 2 2 2 1 1 1 0 0 0 0 0 0 1 2 2 1 2 2 2 3 4 3 5 5 5 5 6 6 6 5 6 5 5 5 5 5 5
2 2 2 2 1 2 2 2 1 1 1 0 0 1 0 0 0 0 1 1 1 2 2 2 2 3 4 4 5 4 4 5 6 6 6 5 5 6 5 5 5 6 5
2 2 2 1 1 1 1 2 1 1 1 1 1 0 0 0 0 0 0 1 1 1 2 2 2 2 2 3 4 4 4 4 5 6 6 5 5 5 5 5 5 5 5
2 2 2 2 1 1 1 2 1 0 1 0 1 0 1 0 0 0 0 0 1 1 2 2 2 2 2 2 2 2 3 4 4 5 6 5 5 5 5 4 4 4 5
2 2 2 2 2 1 1 1 2 1 1 1 1 1 1 1 1 1 1 1 1 1 1 1 2 1 2 2 3 3 3 3 4 5 5 5 5 4 4 4 4 4 4
3 2 2 2 2 2 2 2 2 1 1 1 1 1 1 2 2 2 1 1 1 0 0 0 1 1 1 2 1 2 3 3 3 4 5 4 5 4 4 4 4 3 3
2 2 2 1 1 2 2 2 2 2 2 1 1 1 2 2 2 1 1 2 2 1 1 0 1 1 2 1 1 1 2 2 3 2 3 3 3 3 4 4 4 4 3
1 2 2 2 2 2 2 3 2 2 2 2 2 2 2 2 1 1 2 1 2 2 2 1 1 1 2 2 2 2 1 2 3 2 2 3 2 3 3 3 5 5 4
2 2 2 2 2 3 4 4 4 2 2 2 2 2 2 2 1 0 1 1 1 1 2 3 3 3 3 3 2 2 2 2 3 2 1 3 2 3 4 4 5 4 4
3 2 2 2 2 3 3 3 3 2 2 2 3 3 3 3 2 2 1 0 1 2 3 2 3 4 3 3 4 3 3 2 2 1 0 2 3 3 4 4 5 4 4
2 2 2 2 2 3 3 3 2 1 2 2 2 3 3 3 3 3 2 2 2 3 2 2 3 3 3 2 1 1 0 0 2 2 1 1 3 3 3 3 4 4 4
2 2 1 2 2 3 3 3 2 2 2 2 2 3 4 4 3 3 3 3 2 3 2 2 2 3 2 1 1 2 2 2 2 3 2 1 2 1 2 3 3 4 4
Wind_Direction
50 41 42 48 46 50 57 61 60 59 56 53 57 64 59 55 50 44 42 48 51 51 53 54 54 53 56 63 62 64 61 56 57 53 46 47 43 36 39 39 36 33 41
67 54 45 47 45 52 61 68 68 73 67 63 58 58 57 55 53 48 42 41 44 49 50 52 51 51 49 54 56 55 57 54 52 47 47 45 37 30 31 39 38 34 39
80 72 63 49 44 58 68 69 62 66 67 62 54 52 53 48 48 43 42 39 35 39 43 47 48 49 45 46 48 47 48 47 46 45 45 39 33 33 36 41 34 45 46
83 79 66 51 55 65 68 75 63 64 59 57 55 46 46 45 44 43 42 38 34 34 34 40 45 47 43 41 43 44 42 42 47 49 42 37 34 37 38 38 41 47 51
79 81 68 55 64 69 65 73 64 72 66 55 60 55 42 43 40 46 43 39 36 38 38 37 40 41 40 40 41 43 45 43 43 43 41 38 35 37 36 37 46 47 50
76 79 71 58 69 75 61 60 70 64 67 59 70 58 40 38 41 43 41 43 43 42 42 41 38 32 34 35 37 39 38 38 38 35 36 35 32 34 34 42 47 47 52
76 75 68 56 66 77 77 75 80 71 52 46 68 44 26 36 42 35 34 41 39 40 43 41 39 36 29 28 29 29 31 32 32 29 29 28 27 31 37 49 49 49 54
78 82 79 68 64 80 70 63 72 75 50 44 83 88 29 6 11 23 29 35 29 37 39 35 38 36 33 31 23 23 24 25 23 23 24 23 21 20 27 40 49 51 53
73 77 80 77 67 81 86 72 73 90 76 30 52 102 120 218 319 352 18 27 22 27 23 29 33 30 29 29 21 19 20 23 21 21 22 17 18 21 27 33 43 44 43
62 70 76 77 72 76 80 70 73 82 102 79 25 43 97 141 138 331 339 2 16 24 12 19 23 24 25 25 21 19 19 17 15 16 16 17 21 20 27 28 31 29 27
54 61 72 75 71 67 72 70 69 75 92 113 95 74 65 59 81 144 280 330 353 359 358 8 18 17 17 17 11 10 15 17 14 11 10 13 17 19 26 29 28 27 29
45 54 69 69 70 72 73 74 76 80 77 87 85 86 113 117 153 137 195 295 318 319 337 2 10 1 7 9 2 4 11 13 13 11 8 9 13 20 29 32 31 30 31
54 38 73 73 69 72 80 77 76 70 79 88 95 95 112 132 155 153 154 202 300 311 332 336 344 353 357 358 354 357 2 5 8 9 11 15 15 19 24 25 25 29 29
152 109 93 94 84 81 78 78 74 66 72 86 80 89 94 40 135 153 160 156 10 332 336 308 318 339 344 344 349 359 356 3 7 8 13 20 19 20 25 23 22 23 26
135 98 93 91 91 92 93 95 79 55 71 71 68 101 148 235 136 167 155 159 160 230 282 288 305 321 336 342 349 357 355 358 8 9 12 14 13 16 22 22 22 22 21
132 128 115 105 100 94 100 104 91 67 85 34 90 82 50 339 356 70 158 150 160 178 230 269 273 303 328 350 351 355 348 353 1 3 3 3 13 22 18 21 25 24 23
147 149 149 142 146 146 132 121 133 130 112 13 359 105 290 111 64 1 83 109 145 162 219 277 283 307 330 348 352 355 352 354 348 356 360 7 11 13 9 12 21 20 19
161 165 157 160 172 153 145 151 155 142 162 234 283 231 261 170 125 249 143 179 209 202 199 257 297 316 315 322 340 348 358 355 349 349 354 0 3 4 4 360 6 12 17
169 169 162 177 190 182 167 174 169 178 198 220 226 230 254 197 229 242 216 225 239 257 201 211 277 296 312 334 342 338 348 353 349 344 343 348 350 350 351 352 352 360 5
175 179 184 188 187 178 172 168 158 164 180 226 241 242 241 224 224 221 218 226 208 153 134 155 294 312 314 322 349 330 330 336 332 343 337 338 343 343 339 340 340 345 349
186 173 168 178 179 186 188 173 172 179 178 209 269 273 257 238 237 224 244 210 179 176 183 204 305 336 326 332 307 284 297 310 309 330 327 325 327 331 327 326 329 327 332
181 165 181 191 207 229 216 204 193 188 196 207 242 273 271 273 271 281 295 230 186 187 194 201 255 268 273 278 290 280 281 322 301 316 322 310 325 308 310 313 320 322 318
178 182 194 191 219 236 222 214 212 194 201 217 232 247 262 268 272 208 319 358 304 247 198 193 210 240 244 245 247 271 266 261 261 274 296 285 301 291 296 304 306 313 323
191 195 203 214 229 244 233 221 211 201 210 229 237 232 233 247 217 177 178 299 310 285 252 225 221 239 242 222 214 222 238 265 293 286 197 264 279 278 298 298 303 310 322
188 203 207 212 225 253 240 228 210 195 215 237 243 239 232 232 223 196 180 209 276 299 297 266 260 271 270 249 181 116 73 309 289 274 271 258 269 282 286 284 294 297 303
193 190 208 228 227 251 252 245 212 199 215 234 252 256 248 241 232 202 191 196 227 262 283 301 316 324 332 305 226 190 197 216 264 267 261 242 257 289 294 283 289 310 305
Height
1528 1528 1528 1528 1528 1528 1528 1527 1527 1527 1527 1527 1527 1528 1528 1528 1528 1528 1528 1528 1528 1527 1526 1526 1525 1525 1525 1524 1524 1524 1523 1523 1522 1522 1521 1520 1519 1518 1517 1517 1517 1516 1516
1529 1529 1529 1529 1528 1528 1528 1528 1528 1528 1528 1528 1528 1528 1528 1529 1529 1529 1529 1528 1528 1528 1527 1527 1526 1526 1525 1525 1524 1524 1523 1523 1522 1521 1520 1519 1518 1517 1516 1516 1516 1516 1515
1530 1530 1529 1529 1529 1529 1528 1529 1529 1529 1529 1529 1529 1529 1529 1529 1529 1529 1529 1529 1529 1528 1528 1528 1527 1527 1526 1525 1524 1524 1523 1522 1522 1521 1520 1519 1518 1517 1516 1516 1515 1515 1514
1531 1530 1530 1529 1529 1529 1529 1529 1529 1529 1529 1529 1529 1530 1530 1530 1530 1530 1530 1529 1529 1529 1529 1528 1528 1527 1526 1525 1525 1524 1523 1523 1522 1521 1520 1519 1518 1517 1516 1516 1515 1515 1514
1531 1531 1530 1529 1529 1529 1529 1529 1529 1529 1529 1529 1530 1530 1530 1530 1530 1530 1530 1530 1530 1529 1529 1529 1528 1528 1527 1526 1525 1524 1523 1523 1522 1521 1520 1519 1518 1517 1516 1516 1515 1515 1515
1531 1531 1530 1529 1529 1528 1528 1529 1529 1529 1529 1530 1530 1530 1531 1531 1531 1531 1531 1531 1530 1530 1530 1529 1528 1528 1527 1527 1526 1525 1523 1523 1522 1521 1520 1519 1518 1517 1515 1515 1515 1515 1515
1531 1531 1530 1529 1529 1528 1528 1529 1529 1529 1529 1529 1530 1530 1531 1531 1531 1531 1531 1531 1531 1530 1530 1529 1529 1528 1527 1527 1526 1525 1524 1523 1522 1521 1520 1519 1518 1517 1515 1514 1515 1515 1515
1532 1531 1530 1529 1529 1528 1528 1528 1528 1528 1528 1529 1529 1529 1530 1532 1531 1531 1531 1531 1531 1531 1530 1529 1529 1528 1527 1527 1526 1525 1524 1523 1522 1521 1520 1519 1519 1517 1516 1515 1515 1515 1515
1532 1531 1531 1530 1529 1528 1528 1528 1528 1528 1528 1529 1529 1530 1530 1530 1530 1531 1530 1530 1530 1530 1529 1529 1528 1528 1527 1526 1525 1525 1524 1523 1522 1521 1520 1519 1518 1518 1517 1516 1516 1515 1515
1531 1531 1530 1530 1529 1528 1528 1527 1528 1528 1528 1528 1529 1529 1530 1530 1530 1530 1530 1529 1529 1529 1529 1528 1528 1527 1526 1526 1525 1524 1523 1522 1521 1521 1520 1519 1518 1517 1517 1516 1516 1515 1515
1530 1530 1530 1529 1529 1528 1528 1528 1528 1528 1528 1528 1528 1528 1528 1529 1529 1529 1528 1528 1528 1528 1528 1527 1527 1526 1525 1525 1524 1523 1522 1521 1520 1520 1519 1518 1518 1517 1516 1516 1515 1515 1515
1529 1529 1529 1528 1528 1528 1527 1527 1527 1527 1527 1527 1527 1527 1527 1527 1527 1527 1527 1526 1526 1526 1526 1526 1526 1525 1524 1524 1523 1522 1521 1520 1519 1519 1518 1517 1517 1516 1516 1515 1515 1514 1514
1528 1528 1528 1528 1528 1527 1527 1527 1526 1526 1526 1526 1526 1526 1526 1526 1526 1526 1526 1525 1525 1525 1525 1525 1524 1524 1523 1522 1522 1521 1520 1519 1518 1518 1517 1516 1515 1515 1514 1514 1514 1513 1513
1527 1527 1527 1527 1527 1527 1526 1526 1525 1525 1525 1525 1524 1525 1525 1524 1524 1524 1524 1524 1523 1523 1523 1523 1523 1522 1522 1521 1520 1520 1519 1518 1517 1517 1516 1515 1514 1514 1513 1513 1513 1512 1512
1525 1525 1525 1525 1525 1525 1525 1525 1524 1524 1524 1523 1523 1523 1523 1523 1522 1522 1523 1523 1523 1522 1521 1521 1521 1520 1520 1519 1519 1518 1517 1516 1516 1515 1514 1514 1513 1513 1512 1512 1512 1511 1510
1523 1523 1523 1524 1524 1524 1523 1523 1523 1522 1522 1522 1521 1521 1521 1521 1521 1521 1521 1520 1520 1520 1519 1519 1519 1519 1518 1518 1517 1516 1515 1515 1514 1513 1513 1512 1512 1511 1511 1510 1510 1509 1509
1521 1521 1521 1521 1521 1521 1521 1521 1521 1520 1520 1520 1519 1519 1519 1519 1518 1518 1518 1518 1518 1518 1517 1517 1517 1517 1516 1516 1515 1514 1514 1513 1512 1512 1511 1510 1510 1509 1509 1509 1508 1508 1507
1518 1519 1519 1519 1519 1519 1519 1518 1518 1518 1518 1517 1517 1516 1516 1516 1516 1516 1516 1515 1515 1515 1515 1514 1514 1514 1514 1514 1513 1512 1511 1511 1510 1510 1509 1509 1508 1508 1507 1507 1506 1506 1505
1516 1516 1516 1516 1516 1516 1516 1516 1516 1516 1515 1515 1514 1514 1513 1513 1513 1513 1513 1513 1513 1513 1513 1513 1512 1512 1512 1511 1510 1510 1509 1508 1508 1507 1507 1506 1506 1506 1505 1505 1505 1504 1504
1513 1513 1514 1514 1514 1513 1513 1513 1513 1513 1512 1512 1512 1511 1511 1511 1510 1510 1510 1510 1510 1510 1510 1510 1510 1509 1509 1509 1508 1507 1506 1506 1505 1505 1504 1504 1504 1504 1503 1503 1503 1502 1502
1511 1511 1511 1511 1511 1510 1510 1510 1510 1509 1509 1509 1509 1508 1508 1508 1508 1508 1508 1508 1508 1508 1507 1507 1507 1506 1506 1506 1505 1505 1504 1503 1503 1503 1502 1502 1501 1501 1501 1501 1500 1500 1500
1508 1508 1508 1508 1508 1507 1507 1507 1507 1506 1506 1506 1505 1505 1505 1505 1505 1505 1505 1505 1505 1505 1504 1504 1504 1504 1503 1503 1503 1503 1502 1501 1500 1501 1500 1499 1499 1498 1498 1498 1498 1498 1497
1505 1505 1505 1505 1504 1504 1504 1504 1504 1503 1503 1502 1502 1502 1502 1502 1502 1502 1502 1502 1502 1501 1502 1502 1501 1501 1501 1501 1501 1500 1500 1499 1498 1498 1497 1496 1496 1496 1496 1495 1495 1495 1494
1502 1502 1501 1501 1501 1501 1501 1500 1500 1500 1499 1499 1499 1499 1499 1499 1499 1499 1499 1499 1498 1498 1498 1498 1499 1499 1499 1498 1498 1498 1497 1497 1496 1495 1495 1494 1493 1493 1493 1492 1492 1491 1491
1498 1498 1498 1498 1498 1498 1497 1497 1497 1496 1495 1495 1495 1495 1495 1496 1496 1496 1496 1495 1495 1495 1495 1495 1495 1495 1495 1495 1495 1495 1494 1494 1492 1492 1492 1491 1490 1490 1489 1489 1488 1488 1488
1495 1495 1495 1495 1495 1494 1494 1494 1493 1492 1491 1491 1491 1492 1492 1492 1492 1492 1492 1492 1492 1491 1492 1492 1492 1492 1492 1492 1492 1491 1491 1490 1490 1489 1488 1488 1487 1487 1486 1485 1485 1485 1484